Clarksburg, WV

4:04 PM EST on December 12, 2019 (GMT -0500)
Benedum

Weather History for KCKB - October, 2019

Change the Weather History Date:

Thursday, October 31, 2019

  Actual Average Record
Temperature  
Mean Temperature 58 °F -  
Max Temperature 77 °F 63 °F 84 °F (1927)
Min Temperature 39 °F 35 °F 18 °F (1965)
Degree Days  
Heating Degree Days 7    
Month to date heating degree days 183  
Growing Degree Days 8 (Base 50)    
Moisture  
Dew Point 54 °F    
Average Humidity 76    
Maximum Humidity 87    
Minimum Humidity 64    
Precipitation  
Precipitation 0.56 in - - ()
Month to date precipitation 3.33  
Year to date precipitation 35.40  
Sea Level Pressure  
Sea Level Pressure 29.72 in    
Wind  
Wind Speed 11 mph (SW)    
Max Wind Speed 29 mph    
Max Gust Speed 41 mph    
Visibility 8 miles    
Events Rain    
Averages and records for this station are not official NWS values.
T = Trace of Precipitation, MM = Missing Value Source: NWS Daily Summary

Daily Weather History Graph

Daily Weather History Graph

Search for Another Location

Airport or City:

Astronomy

Oct. 31, 2019 Rise Set
Actual Time 7:47 AM EDT 6:21 PM EDT
Civil Twilight 7:19 AM EDT 6:48 PM EDT
Nautical Twilight 6:48 AM EDT 7:20 PM EDT
Astronomical Twilight 6:16 AM EDT 7:51 PM EDT
Moon 11:33 AM EDT (10/31) 9:17 PM EDT (10/31)
Length of Visible Light 11h 29m
Length of Day
10h 33m
Waxing Crescent, 15% of the Moon is Illuminated
Oct 31
Waxing Crescent
Nov 4
First Quarter
Nov 12
Full
Nov 19
Last Quarter
Nov 26
New

Hourly Weather History & Observations

Time (EDT) Temp. Windchill Dew Point Humidity Pressure Visibility Wind Dir Wind Speed Gust Speed Precip Events Conditions
12:53 AM 64.9 °F - 61.0 °F 87% 29.86 in 10.0 mi SE 3.5 mph - 0.02 in   Overcast
1:53 AM 64.9 °F - 61.0 °F 87% 29.84 in 10.0 mi South 5.8 mph - N/A   Overcast
2:53 AM 66.0 °F - 61.0 °F 84% 29.83 in 10.0 mi SW 4.6 mph - 0.07 in Rain Light Rain
3:53 AM 66.0 °F - 62.1 °F 87% 29.80 in 10.0 mi Calm Calm - 0.01 in   Overcast
4:53 AM 64.0 °F - 60.1 °F 87% 29.78 in 10.0 mi East 3.5 mph - N/A   Mostly Cloudy
5:53 AM 64.0 °F - 61.0 °F 90% 29.76 in 10.0 mi Calm Calm - N/A   Overcast
6:53 AM 68.0 °F - 62.1 °F 81% 29.76 in 10.0 mi South 9.2 mph - N/A   Overcast
7:53 AM 68.0 °F - 62.1 °F 81% 29.74 in 10.0 mi SSW 3.5 mph - N/A   Overcast
8:53 AM 70.0 °F - 62.1 °F 76% 29.70 in 10.0 mi SE 3.5 mph - 0.00 in   Mostly Cloudy
9:53 AM 73.0 °F - 63.0 °F 71% 29.65 in 10.0 mi SE 3.5 mph - N/A   Scattered Clouds
10:53 AM 77.0 °F - 64.0 °F 64% 29.63 in 10.0 mi South 8.1 mph - N/A   Mostly Cloudy
11:53 AM 75.9 °F - 64.0 °F 67% 29.61 in 9.0 mi South 12.7 mph 20.7 mph 0.01 in Rain Light Rain
12:53 PM 73.0 °F - 64.9 °F 76% 29.55 in 8.0 mi SSE 9.2 mph - 0.04 in Rain Light Rain
1:53 PM 73.9 °F - 66.0 °F 76% 29.49 in 10.0 mi South 8.1 mph - 0.01 in Rain Light Rain
2:53 PM 75.0 °F - 64.0 °F 69% 29.46 in 8.0 mi SSW 10.4 mph - 0.01 in Rain Light Rain
3:08 PM 73.0 °F - 64.9 °F 76% 29.50 in 2.5 mi SW 9.2 mph - 0.05 in Rain Heavy Rain
3:48 PM 69.8 °F - 62.6 °F 78% 29.56 in 4.0 mi WSW 17.3 mph 31.1 mph 0.18 in Rain Rain
3:53 PM 69.1 °F - 62.1 °F 78% 29.52 in 5.0 mi WSW 15.0 mph 31.1 mph 0.18 in Rain Light Rain
4:04 PM 68.0 °F - 62.1 °F 81% 29.56 in 6.0 mi West 15.0 mph 24.2 mph 0.01 in Rain Light Rain
4:23 PM 66.9 °F - 60.1 °F 79% 29.56 in 5.0 mi WSW 13.8 mph 25.3 mph 0.02 in Rain Light Rain
4:39 PM 66.0 °F - 60.1 °F 81% 29.59 in 2.5 mi WSW 16.1 mph 24.2 mph 0.05 in Rain Heavy Rain
4:49 PM 62.6 °F - 55.4 °F 77% 29.60 in 3.0 mi WSW 21.9 mph 36.8 mph 0.08 in Rain Rain
4:53 PM 63.0 °F - 55.0 °F 75% 29.58 in 5.0 mi WSW 19.6 mph 36.8 mph 0.09 in Rain Rain
5:53 PM 59.0 °F - 53.1 °F 81% 29.64 in 4.0 mi WSW 18.4 mph 26.5 mph 0.09 in Rain Rain
6:06 PM 57.0 °F - 51.1 °F 81% 29.68 in 7.0 mi West 19.6 mph 27.6 mph 0.02 in Rain Rain
6:34 PM 55.0 °F - 48.9 °F 80% 29.72 in 7.0 mi WSW 19.6 mph 28.8 mph 0.03 in Rain Light Rain
6:53 PM 53.1 °F - 46.0 °F 77% 29.72 in 10.0 mi WSW 18.4 mph 29.9 mph 0.03 in   Overcast
7:43 PM 50.0 °F - 42.1 °F 74% 29.82 in 10.0 mi WSW 21.9 mph 32.2 mph 0.01 in Rain Light Rain
7:53 PM 48.9 °F - 42.1 °F 77% 29.81 in 10.0 mi WSW 24.2 mph 33.4 mph 0.01 in Rain Light Rain
8:53 PM 45.0 °F 35.8 °F 34.0 °F 65% 29.88 in 10.0 mi West 26.5 mph 40.3 mph 0.00 in   Overcast
9:19 PM 44.1 °F 36.2 °F 33.1 °F 65% 29.93 in 10.0 mi WSW 18.4 mph 32.2 mph N/A   Mostly Cloudy
9:45 PM 43.0 °F 33.5 °F 32.0 °F 65% 29.95 in 10.0 mi West 24.2 mph 39.1 mph 0.00 in   Overcast
9:53 PM 42.1 °F 34.9 °F 32.0 °F 67% 29.94 in 10.0 mi WSW 13.8 mph 33.4 mph 0.00 in Rain Light Rain
10:53 PM 39.0 °F 29.9 °F 30.9 °F 73% 30.01 in 10.0 mi WSW 17.3 mph 25.3 mph 0.01 in Rain Light Rain
11:53 PM 39.0 °F 31.4 °F 30.0 °F 70% 30.02 in 10.0 mi WSW 12.7 mph 28.8 mph 0.00 in   Overcast